Weather History for Keahole Point, HI

Change the Weather History Date:

Wednesday, December 5, 2012

  Actual Average Record
Temperature  
Mean Temperature 80 °F -  
Max Temperature 84 °F 80 °F 88 °F (1983)
Min Temperature 75 °F 68 °F 66 °F (2000)
Cooling Degree Days 14    
Growing Degree Days 30 (Base 50)    
Moisture  
Dew Point 70 °F    
Average Humidity 74    
Maximum Humidity 83    
Minimum Humidity 54    
Precipitation  
Precipitation 0.00 in - - ()
Sea Level Pressure  
Sea Level Pressure 30.01 in    
Wind  
Wind Speed 8 mph (SE)    
Max Wind Speed 18 mph    
Max Gust Speed -    
Visibility 10 miles    
Events      
Averages and records for this station are not official NWS values.
T = Trace of Precipitation, MM = Missing Value Source: NWS Daily Summary

Daily Weather History Graph

Daily Weather History Graph

Search for Another Location

Airport:

Trip Planner

Search our weather history database for the weather conditions in past years. The results will help you decide how hot, cold, wet, or windy it might be!

Date:

Astronomy

Dec. 05, 2012 Rise Set
Actual Time 6:45 AM HST 5:44 PM HST
Civil Twilight 6:21 AM HST 6:08 PM HST
Nautical Twilight 5:54 AM HST 6:36 PM HST
Astronomical Twilight 5:27 AM HST 7:02 PM HST
Moon No Moon Rise 11:51 AM HST (12/5)
Length of Visible Light 11h 47m
Length of Day
10h 59m
Waning Gibbous, 58% of the Moon is Illuminated
Dec 5
Waning Gibbous
Dec 6
Last Quarter
Dec 12
New
Dec 19
First Quarter
Dec 28
Full

Hourly Weather History & Observations

Time (HST) Temp. Heat Index Dew Point Humidity Pressure Visibility Wind Dir Wind Speed Gust Speed Precip Events Conditions
12:53 AM 78.1 °F - 70.0 °F 76% 30.04 in 10.0 mi Calm Calm - N/A   Overcast
1:53 AM 77.0 °F - 69.1 °F 76% 30.04 in 10.0 mi NNE 3.5 mph - N/A   Mostly Cloudy
2:53 AM 78.1 °F - 70.0 °F 76% 30.03 in 10.0 mi North 3.5 mph - N/A   Overcast
4:53 AM 75.9 °F - 70.0 °F 82% 30.03 in 10.0 mi North 9.2 mph - N/A   Partly Cloudy
5:53 AM 75.9 °F - 69.1 °F 79% 30.02 in 10.0 mi North 9.2 mph - N/A   Clear
6:53 AM 75.9 °F - 70.0 °F 82% 30.04 in 10.0 mi North 11.5 mph - N/A   Clear
7:53 AM 78.1 °F - 69.1 °F 74% 30.07 in 10.0 mi North 12.7 mph - N/A   Clear
8:53 AM 81.0 °F 83.8 °F 68.0 °F 65% 30.09 in 10.0 mi North 15.0 mph - N/A   Clear
9:53 AM 82.0 °F 84.9 °F 68.0 °F 62% 30.08 in 10.0 mi NNW 13.8 mph - N/A   Clear
10:53 AM 82.9 °F 84.6 °F 64.9 °F 54% 30.06 in 10.0 mi North 12.7 mph - N/A   Partly Cloudy
11:53 AM 84.0 °F 86.3 °F 66.0 °F 55% 30.02 in 10.0 mi North 13.8 mph - N/A   Clear
12:53 PM 81.0 °F 84.1 °F 69.1 °F 67% 30.00 in 10.0 mi NNW 11.5 mph - N/A   Clear
1:53 PM 81.0 °F 83.3 °F 66.9 °F 62% 29.95 in 10.0 mi North 10.4 mph - N/A   Clear
2:53 PM 80.1 °F 83.6 °F 71.1 °F 74% 29.97 in 10.0 mi SSE 18.4 mph - N/A   Scattered Clouds
3:13 PM 78.8 °F - 71.6 °F 78% 29.97 in 10.0 mi SSE 13.8 mph - N/A   Mostly Cloudy
3:26 PM 80.6 °F 84.6 °F 71.6 °F 74% 29.96 in 10.0 mi South 13.8 mph - N/A   Overcast
3:53 PM 79.0 °F - 70.0 °F 74% 29.97 in 10.0 mi South 13.8 mph - N/A   Mostly Cloudy
4:17 PM 78.8 °F - 71.6 °F 78% 29.96 in 10.0 mi South 10.4 mph - N/A   Scattered Clouds
4:53 PM 79.0 °F - 71.1 °F 77% 29.98 in 10.0 mi SSW 10.4 mph - N/A   Partly Cloudy
5:53 PM 78.1 °F - 71.1 °F 79% 29.99 in 10.0 mi SSW 11.5 mph - N/A   Mostly Cloudy
6:53 PM 78.1 °F - 71.1 °F 79% 30.01 in 10.0 mi SW 10.4 mph - N/A   Mostly Cloudy
7:53 PM 78.1 °F - 70.0 °F 76% 30.02 in 10.0 mi South 8.1 mph - N/A   Overcast
8:00 PM 78.8 °F - 69.8 °F 74% 30.01 in 10.0 mi SSE 10.4 mph - N/A   Overcast
8:40 PM 78.8 °F - 69.8 °F 74% 30.02 in 10.0 mi SSE 10.4 mph - N/A   Overcast
8:53 PM 78.1 °F - 69.1 °F 74% 30.03 in 10.0 mi SSE 9.2 mph - N/A   Overcast
9:53 PM 77.0 °F - 70.0 °F 79% 30.01 in 10.0 mi SE 10.4 mph - 0.00 in   Overcast
10:08 PM 75.2 °F - 69.8 °F 83% 30.01 in 10.0 mi SE 8.1 mph - N/A   Mostly Cloudy
10:53 PM 75.9 °F - 69.1 °F 79% 30.01 in 10.0 mi South 4.6 mph - N/A   Mostly Cloudy
11:53 PM 75.9 °F - 69.1 °F 79% 30.00 in 10.0 mi East 3.5 mph - N/A   Overcast